Showing default

QIANFAN-64, 62794

Orbit data source: Space-Track

QIANFAN-64, 62794 is a Chinese payload satellite in LEO that was launched on Thu, 23 Jan 2025 UTC via a CHANG ZHENG 6A launch vehicle from the Taiyaun Space Center, China (TSC). Payload-class satellites include a variety of spacecraft equipped with specific instruments for various scientific and technological missions. These include communications satellites like Starlink; space stations such as the ISS; scientific satellites like the Hubble; Earth observation satellites from companies like Planet Labs, Umbra, and HawkEye 360; GPS; miniature CubeSats for education and research; and military/defense satellites.

Loading next visibility...
Identifier
62794, 2025-016K
Orbit
LEO
Last TLE update
8 hours ago
Origin
Manufacturer
SECM
Mission
Operational Commercial Communications
Bus & Motor
QIANFAN, Unknown motor
Mass
267 kg wet, ~267 kg dry
Launch date (UTC)
2025-01-23 (5 months ago)
Launch vehicle
CHANG ZHENG 6A
Launch site
Taiyaun Space Center, China (TSC)
Object type
Payload
Rocket body
Debris
Shape & HBR
Box + 1 Pan, 10 m
Radar Cross Section
13.200 m², Large (>1 m²)

Expand to show TLE details & history

TLE from 8 hours ago
0 QIANFAN-64
1 62794U 25016K   25183.87801330  .00000121  00000-0  16840-3 0  9997
2 62794  88.9850 119.8314 0016149  90.1582 270.1420 13.50955121 25275
Epoch: 2025-07-02T21:04Z
TLE epoch observation values (Epoch: 2025-07-02T21:04:20.349Z)
Latitude
0.00003°
Longitude
-117.40619°
Altitude
1,071.689 km
Speed
7.316 km/s
True Right ascension
07h 59m 19s
True Declination
0° 00' 00"
Sunlit
Object was in daylight at epoch
Visualization orbit readout
Latitude
14.40387°
Longitude
62.3006°
Altitude
1,068.127 km
Speed
7.32 km/s
Apparent Right ascension
22h 49m 12s
Apparent Declination
-22° 30' 23"
Sunlit
Object is in full shadow
Visualization observer readout
Local Sidereal Time
16:45:18
Azimuth
107.061° ESE
Elevation
-14.934°
Doppler factor
1
Orbital elements
Apogee altitude
1,077.819 km
Perigee altitude
1,053.776 km
Semi-major axis
7,443.935 km
Eccentricity
0.00161
Inclination
88.985°
RAAN
119.8314°
Arg. of periapsis
90.1582°
True anomaly
Unknown
Mean anomaly
270.142°
Eccentric anomaly
Unknown
Mean motion
3.3794 °/min
Orbital period
106.53 mins
BSTAR
0.0001684
Loading maneuver chart data...
Loading SW <> Apogee altitude chart data...
Loading historical data...
Loading historical data...
Loading historical data...
Loading historical data...
Loading historical data...
Loading historical data...
Loading historical data...

QIANFAN-64 Visibility forecast

Observer location: undefined°, undefined°

Span
Click to sort rows by Start time (UTC) header in descending order
Start Az.
Max El. time (UTC)
Max El. Az.
Max El.
End time (UTC)
End Az.
7 mins2025-07-03 06:34:51.964Z40.672° NE2025-07-03 06:38:51.964Z81.356° E17.165°2025-07-03 06:41:51.964Z111.306° ESE
11 mins2025-07-03 08:20:51.964Z353.144° N2025-07-03 08:25:51.964Z257.057° W42.934°2025-07-03 08:31:51.964Z193.091° SSW
5 mins2025-07-03 18:34:51.964Z92.945° ESE2025-07-03 18:36:51.964Z72.646° E15.276°2025-07-03 18:39:51.964Z43.267° NE
11 mins2025-07-03 20:17:51.964Z184.204° SSW2025-07-03 20:22:51.964Z297.203° NW44.322°2025-07-03 20:28:51.964Z356.44° N
|